#timestamp,LO_Frequency,Hit,StdDev 
1654628415.4,286046996.6,N
1654628435.2,286046997.0,N
1654628455.1,286046995.3,Y
1654628456.0,286046995.3,P
1654628475.8,286046997.7,N
1654628495.7,286046996.7,N
1654628515.5,286046997.1,N
1654628535.3,286046997.7,N
1654628555.2,286046997.2,N
1654628575.0,286046999.4,N
1654628575.9,286046999.4,N
1654628595.7,286046999.6,N
1654628615.6,286046999.1,N
1654628635.4,286046999.4,N
1654628655.3,286046998.3,N
1654628675.1,286046999.2,N
1654628695.8,286046999.6,N
1654628715.7,286046996.6,N
1654628735.5,286046999.1,N
1654628755.3,286046997.2,N
1654628775.2,286046999.6,N
1654628795.0,286046999.2,N
1654628795.9,286046999.2,N
1654628815.8,286046996.5,N
1654628835.6,286046996.5,N
1654628855.4,286046996.8,N
1654628875.3,286046999.5,N
1654628895.1,286046998.9,N
1654628915.9,286046999.4,N
1654628935.7,286046998.1,N
1654628955.5,286046998.5,N
1654628975.4,286046998.7,N
1654628995.2,286046999.1,N
1654629015.0,286046999.1,N
1654629015.9,286046999.1,N
1654629035.8,286046996.9,N
1654629055.6,286046997.0,N
1654629075.5,286046996.5,Y
1654629095.3,286047000.9,P
1654629115.1,286047001.2,N
1654629135.9,286047001.0,N
1654629155.7,286047000.3,N
1654629175.6,286046998.6,N
1654629195.4,286047001.0,N
1654629215.2,286046999.0,N
1654629235.1,286047000.8,N
1654629236.0,286047000.8,N
1654629255.8,286046999.8,N
1654629275.6,286047000.5,N
1654629295.5,286047001.0,N
1654629315.3,286046999.7,N
1654629335.2,286047002.3,N
1654629355.9,286047002.3,N
1654629375.7,286047002.6,N
1654629395.6,286047002.5,N
1654629415.4,286047002.4,N
1654629435.2,286047002.4,N
1654629455.1,286047000.2,N
1654629456.0,286047000.2,N
1654629475.8,286047002.3,N
1654629495.7,286047000.0,N
1654629515.5,286047000.5,N
1654629535.3,286046998.9,N
1654629555.2,286046998.6,N
1654629575.0,286047000.6,N
1654629575.9,286047000.6,N
1654629595.8,286047000.8,N
1654629615.6,286047001.0,N
1654629635.4,286047001.0,N
1654629655.3,286047000.0,N
1654629675.1,286047000.8,N
1654629695.9,286046998.5,N
1654629715.7,286046998.7,N
1654629735.5,286046999.6,N
1654629755.4,286046996.9,N
1654629775.2,286046996.5,N
1654629795.0,286046999.3,N
1654629795.9,286046999.3,N
1654629815.8,286046999.4,N
1654629835.6,286047001.0,N
1654629855.5,286046998.1,N
1654629875.3,286046998.8,N
1654629895.1,286046998.7,N
1654629915.9,286046999.3,N
1654629935.7,286046998.3,N
1654629955.6,286046998.3,N
1654629975.4,286046998.5,N
1654629995.2,286046998.3,N
1654630015.1,286046999.0,N
1654630016.0,286046999.0,N
1654630035.8,286046999.2,N
1654630055.6,286046996.8,N
1654630075.5,286046996.7,N
1654630095.3,286046997.1,N
1654630115.2,286046997.6,N
1654630135.9,286046996.9,N
1654630155.7,286046996.8,N
1654630175.6,286046995.5,Y
1654630195.4,286046996.6,P
1654630215.3,286046998.7,N
1654630235.1,286047000.7,N
1654630236.0,286047000.7,N
1654630255.8,286046998.5,N
1654630275.7,286047001.2,N
1654630295.5,286046999.4,N
1654630315.3,286046999.1,N
1654630335.2,286046998.4,N
1654630355.0,286046998.3,N
1654630355.9,286046998.3,N
1654630375.8,286047000.8,N
1654630395.6,286047001.1,N
1654630415.4,286046998.3,N
1654630435.3,286046998.9,N
1654630455.1,286046999.4,N
1654630475.9,286046999.1,N
1654630495.7,286046999.4,N
1654630515.5,286046998.8,N
1654630535.4,286046998.6,N
1654630555.2,286046998.3,N
1654630575.0,286046997.8,N
1654630575.9,286046997.8,N
1654630595.8,286046996.7,N
1654630615.6,286046999.0,N
1654630635.5,286047000.7,N
1654630655.3,286046998.4,N
1654630675.1,286046999.2,N
1654630695.9,286046999.6,N
1654630715.7,286047001.1,N
1654630735.5,286046998.2,N
1654630755.4,286046998.3,N
1654630775.2,286046996.9,N
1654630795.1,286046999.2,N
1654630796.0,286046999.2,N
1654630815.8,286046999.1,N
1654630835.6,286046997.8,N
1654630855.5,286046997.1,N
1654630875.3,286046997.4,N
1654630895.2,286046997.8,N
1654630915.9,286046996.7,N
1654630935.7,286046995.8,Y
1654630955.6,286046997.7,P
1654630975.4,286046995.4,P
1654630995.2,286046997.4,N
1654631015.1,286046997.1,N
1654631016.0,286046997.1,N
1654631035.8,286046999.1,N
1654631055.7,286046997.7,N
1654631075.5,286046995.1,Y
1654631095.3,286046996.5,P
1654631115.2,286046999.1,N
1654631135.0,286046997.1,N
1654631135.9,286046997.1,Y
1654631155.8,286046998.5,P
1654631175.6,286046998.7,N
1654631195.4,286047000.6,N
1654631215.3,286047001.2,N
1654631235.1,286046999.3,N
1654631255.8,286046997.0,N
1654631275.7,286046999.1,N
1654631295.5,286046999.6,N
1654631315.4,286046996.8,N
1654631335.2,286046996.7,N
1654631355.0,286046997.8,N
1654631355.9,286046997.8,N
1654631375.8,286047001.1,N
1654631395.6,286046998.1,N
1654631415.4,286046999.3,N
1654631435.3,286046998.2,N
1654631455.1,286047001.2,N
1654631475.9,286046999.9,N
1654631495.7,286047000.5,N
1654631515.5,286047000.8,N
1654631535.4,286046999.3,N
1654631555.2,286046998.9,N
1654631575.0,286046999.0,N
1654631575.9,286046999.0,N
1654631595.8,286047001.1,N
1654631615.6,286047001.0,N
1654631635.5,286047000.0,N
1654631655.3,286047000.4,N
1654631675.1,286047001.0,N
1654631695.9,286047000.7,N
1654631715.7,286046998.7,N
1654631735.6,286046998.6,N
1654631755.4,286046998.3,N
1654631775.2,286046998.8,N
1654631795.1,286046999.3,N
1654631796.0,286046999.3,N
1654631815.8,286046998.8,N
1654631835.6,286047000.6,N
1654631855.5,286047000.4,N
1654631875.3,286047002.4,N
1654631895.2,286047000.4,N
1654631915.0,286046998.3,N
1654631915.9,286046998.3,N
1654631935.7,286046998.5,N
1654631955.6,286046998.6,N
1654631975.4,286046999.8,N
1654631995.3,286047002.7,N
